363P/Lemmon (2018)

Japanese version
Home page
Updated on March 5, 2020

---------------------------------------------------------------------

* Profile

Designation 363P/2017 W1
Recovery Date November 19, 2017
Magnitude 20.3 mag
Recoverer Erwin Schwab and Pablo Ruiz (European Space Agency's Optical Ground Station, Tenerife, Spain)

* Pictures

* Orbital Elements

Epoch 2018 Mar. 23.0 TT = JDT 2458200.5
T 2018 Mar. 22.92204 TT                                 MPCW
q   1.5078642            (2000.0)            P               Q
n   0.15691731     Peri.  315.28080     -0.57670073     -0.81686532
a   3.4042555      Node   169.91724     +0.76760870     -0.54689152
e   0.5570649      Incl.    3.97538     +0.27963038     -0.18341406
P   6.28
From 90 observations 2011 Nov. 3-2018 May 14, mean residual 0".4.

* Magnitudes Graph

        m1 = 17.5 + 5 log d + 10.0 log r

---------------------------------------------------------------------

The orbital elements are published on M.P.E.C. 2019-J142.
The magnitudes graphs are made with Comet for Windows.

---------------------------------------------------------------------

Copyright(C) Seiichi Yoshida (comet@aerith.net). All rights reserved.